TimePST,TemperatureF,Dew PointF,Humidity,Sea Level PressureIn,VisibilityMPH,Wind Direction,Wind SpeedMPH,Gust SpeedMPH,PrecipitationIn,Events,Conditions,WindDirDegrees,DateUTC
12:00 AM,32.0,26.6,80,30.13,10.0,Calm,Calm,-,N/A,,Partly Cloudy,0,2012-12-07 08:00:00
12:20 AM,32.0,26.6,80,30.13,10.0,Calm,Calm,-,N/A,,Clear,0,2012-12-07 08:20:00
12:40 AM,28.4,24.8,86,30.13,10.0,South,4.6,-,N/A,,Clear,170,2012-12-07 08:40:00
1:00 AM,26.6,23.0,86,30.12,10.0,SW,3.5,-,N/A,,Clear,230,2012-12-07 09:00:00
1:20 AM,24.8,23.0,93,30.13,10.0,West,4.6,-,N/A,,Clear,280,2012-12-07 09:20:00
1:40 AM,24.8,23.0,93,30.14,10.0,Calm,Calm,-,N/A,,Clear,0,2012-12-07 09:40:00
2:00 AM,26.6,24.8,93,30.14,10.0,Calm,Calm,-,N/A,,Clear,0,2012-12-07 10:00:00
2:20 AM,24.8,23.0,93,30.13,10.0,South,5.8,-,N/A,,Clear,190,2012-12-07 10:20:00
2:40 AM,23.0,21.2,93,30.14,10.0,SSW,3.5,-,N/A,,Clear,200,2012-12-07 10:40:00
3:20 AM,23.0,21.2,93,30.14,10.0,Calm,Calm,-,N/A,,Clear,0,2012-12-07 11:20:00
3:40 AM,23.0,19.4,86,30.13,10.0,Calm,Calm,-,N/A,,Clear,0,2012-12-07 11:40:00
4:00 AM,23.0,19.4,86,30.13,10.0,Calm,Calm,-,N/A,,Clear,0,2012-12-07 12:00:00
4:20 AM,21.2,19.4,93,30.13,10.0,Calm,Calm,-,N/A,,Clear,0,2012-12-07 12:20:00
4:40 AM,19.4,17.6,93,30.13,10.0,Calm,Calm,-,N/A,,Clear,0,2012-12-07 12:40:00
5:00 AM,19.4,17.6,93,30.14,10.0,Calm,Calm,-,N/A,,Clear,0,2012-12-07 13:00:00
5:20 AM,17.6,15.8,93,30.14,10.0,SW,4.6,-,N/A,,Clear,230,2012-12-07 13:20:00
5:40 AM,17.6,15.8,93,30.15,10.0,Calm,Calm,-,N/A,,Clear,0,2012-12-07 13:40:00
6:00 AM,19.4,15.8,86,30.15,10.0,SSW,5.8,-,N/A,,Clear,210,2012-12-07 14:00:00
6:20 AM,19.4,17.6,93,30.15,10.0,SSW,6.9,-,N/A,,Clear,210,2012-12-07 14:20:00
6:40 AM,21.2,19.4,93,30.15,10.0,SSW,6.9,-,N/A,,Clear,200,2012-12-07 14:40:00
7:00 AM,21.2,17.6,86,30.15,10.0,South,5.8,-,N/A,,Clear,180,2012-12-07 15:00:00
7:20 AM,23.0,19.4,86,30.15,10.0,SSW,5.8,-,N/A,,Clear,210,2012-12-07 15:20:00
7:40 AM,24.8,23.0,93,30.15,10.0,South,4.6,-,N/A,,Clear,190,2012-12-07 15:40:00
8:00 AM,26.6,24.8,93,30.16,10.0,SSE,3.5,-,N/A,,Clear,160,2012-12-07 16:00:00
8:20 AM,30.2,28.4,93,30.16,10.0,South,3.5,-,N/A,,Clear,190,2012-12-07 16:20:00
8:40 AM,32.0,28.4,87,30.17,10.0,SSW,5.8,-,N/A,,Clear,200,2012-12-07 16:40:00
9:00 AM,32.0,28.4,87,30.16,10.0,WSW,5.8,-,N/A,,Clear,240,2012-12-07 17:00:00
9:20 AM,35.6,28.4,75,30.17,10.0,SW,3.5,-,N/A,,Clear,220,2012-12-07 17:20:00
9:40 AM,37.4,28.4,70,30.17,10.0,Calm,Calm,-,N/A,,Clear,0,2012-12-07 17:40:00
10:00 AM,37.4,26.6,65,30.17,10.0,Calm,Calm,-,N/A,,Clear,0,2012-12-07 18:00:00
10:20 AM,37.4,26.6,65,30.17,10.0,West,3.5,-,N/A,,Clear,260,2012-12-07 18:20:00
10:40 AM,39.2,26.6,61,30.16,10.0,South,8.1,-,N/A,,Clear,190,2012-12-07 18:40:00
11:00 AM,39.2,24.8,56,30.15,10.0,SW,4.6,-,N/A,,Clear,230,2012-12-07 19:00:00
11:20 AM,41.0,23.0,49,30.15,10.0,Calm,Calm,-,N/A,,Clear,0,2012-12-07 19:20:00
11:40 AM,42.8,23.0,46,30.14,10.0,East,3.5,-,N/A,,Clear,100,2012-12-07 19:40:00
12:00 PM,42.8,23.0,46,30.13,10.0,SE,5.8,-,N/A,,Clear,140,2012-12-07 20:00:00
12:20 PM,44.6,23.0,43,30.12,10.0,Calm,Calm,-,N/A,,Clear,0,2012-12-07 20:20:00
12:40 PM,46.4,19.4,34,30.11,10.0,WNW,8.1,-,N/A,,Clear,300,2012-12-07 20:40:00
1:00 PM,44.6,19.4,37,30.10,10.0,WSW,5.8,-,N/A,,Clear,240,2012-12-07 21:00:00
1:20 PM,46.4,17.6,32,30.09,10.0,West,10.4,17.3,N/A,,Clear,270,2012-12-07 21:20:00
1:40 PM,46.4,17.6,32,30.09,10.0,WNW,5.8,-,N/A,,Clear,300,2012-12-07 21:40:00
2:00 PM,46.4,17.6,32,30.09,10.0,West,8.1,-,N/A,,Clear,280,2012-12-07 22:00:00
2:20 PM,46.4,17.6,32,30.08,10.0,WNW,8.1,-,N/A,,Clear,290,2012-12-07 22:20:00
2:40 PM,46.4,15.8,29,30.08,10.0,NW,6.9,-,N/A,,Clear,310,2012-12-07 22:40:00
3:00 PM,46.4,14.0,27,30.08,10.0,NW,9.2,-,N/A,,Clear,310,2012-12-07 23:00:00
3:20 PM,44.6,12.2,27,30.08,10.0,WNW,5.8,-,N/A,,Clear,300,2012-12-07 23:20:00
3:40 PM,44.6,14.0,29,30.08,10.0,NW,6.9,-,N/A,,Clear,320,2012-12-07 23:40:00
4:00 PM,41.0,15.8,36,30.08,10.0,NW,4.6,-,N/A,,Clear,310,2012-12-08 00:00:00
4:20 PM,39.2,14.0,36,30.08,10.0,NW,3.5,-,N/A,,Clear,320,2012-12-08 00:20:00
4:40 PM,35.6,15.8,44,30.08,10.0,Calm,Calm,-,N/A,,Clear,0,2012-12-08 00:40:00
5:00 PM,35.6,15.8,44,30.08,10.0,NNW,3.5,-,N/A,,Clear,330,2012-12-08 01:00:00
5:20 PM,32.0,15.8,51,30.08,10.0,WNW,4.6,-,N/A,,Clear,300,2012-12-08 01:20:00
5:40 PM,32.0,15.8,51,30.08,10.0,South,5.8,-,N/A,,Clear,180,2012-12-08 01:40:00
6:00 PM,32.0,17.6,55,30.08,10.0,South,3.5,-,N/A,,Clear,190,2012-12-08 02:00:00
6:20 PM,28.4,17.6,64,30.08,10.0,SW,5.8,-,N/A,,Clear,220,2012-12-08 02:20:00
7:00 PM,28.4,17.6,64,30.08,10.0,Calm,Calm,-,N/A,,Mostly Cloudy,0,2012-12-08 03:00:00
7:20 PM,28.4,17.6,64,30.07,10.0,SW,3.5,-,N/A,,Scattered Clouds,220,2012-12-08 03:20:00
7:40 PM,32.0,15.8,51,30.07,10.0,SW,6.9,-,N/A,,Scattered Clouds,220,2012-12-08 03:40:00
8:00 PM,39.2,10.4,31,30.07,10.0,Calm,Calm,-,N/A,,Scattered Clouds,0,2012-12-08 04:00:00
8:40 PM,32.0,14.0,48,30.07,10.0,SW,4.6,-,N/A,,Mostly Cloudy,220,2012-12-08 04:40:00
9:00 PM,33.8,12.2,41,30.07,10.0,SSW,3.5,-,N/A,,Mostly Cloudy,210,2012-12-08 05:00:00
9:20 PM,32.0,14.0,48,30.07,10.0,SW,4.6,-,N/A,,Scattered Clouds,220,2012-12-08 05:20:00
9:40 PM,26.6,14.0,59,30.07,10.0,SSW,3.5,-,N/A,,Clear,200,2012-12-08 05:40:00
10:00 PM,32.0,12.2,44,30.06,10.0,SSW,4.6,-,N/A,,Clear,200,2012-12-08 06:00:00
10:20 PM,32.0,10.4,41,30.06,10.0,SSW,4.6,-,N/A,,Partly Cloudy,200,2012-12-08 06:20:00
10:40 PM,26.6,14.0,59,30.06,10.0,SSE,6.9,-,N/A,,Clear,150,2012-12-08 06:40:00
11:00 PM,24.8,14.0,64,30.06,10.0,South,4.6,-,N/A,,Clear,170,2012-12-08 07:00:00
11:20 PM,26.6,12.2,55,30.06,10.0,SSW,4.6,-,N/A,,Clear,210,2012-12-08 07:20:00
11:40 PM,23.0,12.2,63,30.05,10.0,ESE,6.9,-,N/A,,Clear,120,2012-12-08 07:40:00